Kremmling, CO

4:42 AM MDT on April 27, 2017 (GMT -0600)
Kremmling

Weather History for K20V - March, 2013

Change the Weather History Date:

Wednesday, March 13, 2013

  Actual Average Record
Temperature  
Mean Temperature 34 °F -  
Max Temperature 48 °F - 59 °F (2012)
Min Temperature 21 °F - 1 °F (2008)
Degree Days  
Heating Degree Days 30    
Month to date heating degree days  
Cooling Degree Days 0    
Month to date cooling degree days  
Moisture  
Dew Point 24 °F    
Average Humidity 68    
Maximum Humidity 86    
Minimum Humidity 40    
Precipitation  
Precipitation 0.00 in - 0.03 in (2011)
Sea Level Pressure  
Sea Level Pressure 30.39 in    
Wind  
Wind Speed 2 mph (ESE)    
Max Wind Speed 8 mph    
Max Gust Speed -    
T = Trace of Precipitation, MM = Missing Value Source: NWS Daily Summary

Daily Weather History Graph

Daily Weather History Graph

Search for Another Location

Airport or City:

Trip Planner

Search our weather history database for the weather conditions in past years. The results will help you decide how hot, cold, wet, or windy it might be!

Date:

Astronomy

Mar. 13, 2013 Rise Set
Actual Time 7:19 AM MDT 7:10 PM MDT
Civil Twilight 6:52 AM MDT 7:37 PM MDT
Nautical Twilight 6:21 AM MDT 8:09 PM MDT
Astronomical Twilight 5:49 AM MDT 8:40 PM MDT
Moon 8:00 AM MDT (3/13) 9:30 PM MDT (3/13)
Length of Visible Light 12h 44m
Length of Day
11h 50m
Waxing Crescent, 4% of the Moon is Illuminated
Mar 13
Waxing Crescent
Mar 19
First Quarter
Mar 27
Full
Apr 2
Last Quarter
Apr 10
New

Hourly Weather History & Observations

Time (MDT) Temp. Windchill Dew Point Humidity Pressure Visibility Wind Dir Wind Speed Gust Speed Precip Events Conditions
12:16 AM 30.2 °F - 23.0 °F 75% 30.34 in - Calm Calm - N/A   Mostly Cloudy
12:36 AM 30.2 °F - 23.0 °F 75% 30.35 in - Calm Calm - N/A   Overcast
12:56 AM 28.4 °F 24.6 °F 23.0 °F 80% 30.35 in - North 3.5 mph - N/A   Overcast
1:16 AM 28.4 °F - 23.0 °F 80% 30.34 in - Calm Calm - N/A   Overcast
1:36 AM 26.6 °F 22.6 °F 23.0 °F 86% 30.34 in - East 3.5 mph - N/A   Mostly Cloudy
1:56 AM 26.6 °F - 19.4 °F 74% 30.34 in - Calm Calm - N/A   Mostly Cloudy
2:15 AM 24.8 °F - 21.2 °F 86% 30.34 in - Calm Calm - N/A   Mostly Cloudy
2:56 AM 21.2 °F - 17.6 °F 86% 30.34 in - Calm Calm - N/A   Mostly Cloudy
3:16 AM 23.0 °F 17.0 °F 19.4 °F 86% 30.33 in - ENE 4.6 mph - N/A   Mostly Cloudy
3:36 AM 23.0 °F 15.8 °F 19.4 °F 86% 30.33 in - East 5.8 mph - N/A   Unknown
3:56 AM 23.0 °F 13.9 °F 19.4 °F 86% 30.34 in - ESE 8.1 mph - N/A   Unknown
4:16 AM 26.6 °F 21.2 °F 21.2 °F 80% 30.34 in - East 4.6 mph - N/A   Overcast
4:36 AM 26.6 °F 22.6 °F 19.4 °F 74% 30.35 in - West 3.5 mph - N/A   Overcast
4:55 AM 24.8 °F - 19.4 °F 80% 30.36 in - Calm Calm - N/A   Overcast
5:16 AM 24.8 °F - 21.2 °F 86% 30.36 in - Calm Calm - N/A   Overcast
5:36 AM 26.6 °F - 21.2 °F 80% 30.37 in - Calm Calm - N/A   Overcast
5:56 AM 26.6 °F 22.6 °F 21.2 °F 80% 30.37 in - ESE 3.5 mph - N/A   Overcast
6:16 AM 28.4 °F - 21.2 °F 74% 30.38 in - Calm Calm - N/A   Overcast
6:36 AM 26.6 °F - 21.2 °F 80% 30.38 in - Calm Calm - N/A   Overcast
6:56 AM 26.6 °F - 23.0 °F 86% 30.39 in - Calm Calm - N/A   Overcast
7:16 AM 26.6 °F 22.6 °F 23.0 °F 86% 30.39 in - SW 3.5 mph - N/A   Overcast
7:36 AM 26.6 °F - 23.0 °F 86% 30.39 in - Calm Calm - N/A   Overcast
7:56 AM 26.6 °F 21.2 °F 21.2 °F 80% 30.40 in - SE 4.6 mph - N/A   Unknown
8:16 AM 26.6 °F 20.0 °F 19.4 °F 74% 30.40 in - ESE 5.8 mph - N/A   Clear
8:36 AM 28.4 °F - 21.2 °F 74% 30.40 in - Calm Calm - N/A   Clear
8:56 AM 30.2 °F - 23.0 °F 75% 30.41 in - Calm Calm - N/A   Clear
9:16 AM 30.2 °F - 21.2 °F 69% 30.41 in - Calm Calm - N/A   Clear
9:36 AM 32.0 °F - 23.0 °F 69% 30.41 in - Calm Calm - N/A   Scattered Clouds
9:56 AM 33.8 °F - 23.0 °F 65% 30.42 in - Calm Calm - N/A   Scattered Clouds
10:16 AM 33.8 °F - 23.0 °F 65% 30.42 in - Calm Calm - N/A   Mostly Cloudy
10:36 AM 35.6 °F - 23.0 °F 60% 30.42 in - Calm Calm - N/A   Mostly Cloudy
10:55 AM 35.6 °F 32.8 °F 24.8 °F 65% 30.42 in - SE 3.5 mph - N/A   Scattered Clouds
11:16 AM 37.4 °F 32.1 °F 24.8 °F 60% 30.43 in - East 6.9 mph - N/A   Scattered Clouds
11:36 AM 35.6 °F 30.7 °F 23.0 °F 60% 30.43 in - ESE 5.8 mph - N/A   Clear
11:56 AM 37.4 °F 32.8 °F 24.8 °F 60% 30.43 in - ESE 5.8 mph - N/A   Clear
12:16 PM 39.2 °F 35.0 °F 24.8 °F 56% 30.43 in - East 5.8 mph - N/A   Clear
12:36 PM 41.0 °F 35.8 °F 24.8 °F 53% 30.42 in - East 8.1 mph - N/A   Clear
12:56 PM 41.0 °F 37.1 °F 26.6 °F 57% 30.42 in - ESE 5.8 mph - N/A   Clear
1:16 PM 44.6 °F - 26.6 °F 49% 30.41 in - Calm Calm - N/A   Clear
1:35 PM 44.6 °F 43.1 °F 26.6 °F 49% 30.41 in - ENE 3.5 mph - N/A   Clear
1:56 PM 46.4 °F 45.2 °F 28.4 °F 50% 30.40 in - East 3.5 mph - N/A   Clear
2:16 PM 44.6 °F - 26.6 °F 49% 30.40 in - Calm Calm - N/A   Clear
2:36 PM 42.8 °F - 26.6 °F 53% 30.39 in - Calm Calm - N/A   Clear
2:56 PM 46.4 °F - 26.6 °F 46% 30.39 in - Calm Calm - N/A   Clear
3:16 PM 42.8 °F 41.1 °F 26.6 °F 53% 30.38 in - East 3.5 mph - N/A   Clear
3:36 PM 46.4 °F 45.2 °F 26.6 °F 46% 30.38 in - South 3.5 mph - N/A   Clear
3:56 PM 46.4 °F 45.2 °F 26.6 °F 46% 30.38 in - South 3.5 mph - N/A   Clear
4:16 PM 48.2 °F - 26.6 °F 43% 30.38 in - East 3.5 mph - N/A   Clear
4:36 PM 46.4 °F 44.3 °F 26.6 °F 46% 30.38 in - ESE 4.6 mph - N/A   Scattered Clouds
4:56 PM 46.4 °F - 26.6 °F 46% 30.38 in - Calm Calm - N/A   Scattered Clouds
5:16 PM 46.4 °F 45.2 °F 23.0 °F 40% 30.37 in - ESE 3.5 mph - N/A   Clear
5:36 PM 46.4 °F 44.3 °F 24.8 °F 43% 30.37 in - East 4.6 mph - N/A   Clear
5:56 PM 44.6 °F 41.4 °F 24.8 °F 46% 30.37 in - East 5.8 mph - N/A   Clear
6:15 PM 42.8 °F 38.6 °F 23.0 °F 46% 30.37 in - ESE 6.9 mph - N/A   Clear
6:36 PM 42.8 °F 39.3 °F 23.0 °F 46% 30.37 in - ESE 5.8 mph - N/A   Clear
6:56 PM 41.0 °F - 24.8 °F 53% 30.37 in - Calm Calm - N/A   Clear
7:16 PM 37.4 °F 34.9 °F 26.6 °F 65% 30.37 in - North 3.5 mph - N/A   Clear
7:36 PM 37.4 °F - 26.6 °F 65% 30.37 in - Calm Calm - N/A   Clear
7:56 PM 35.6 °F - 26.6 °F 70% 30.38 in - Calm Calm - N/A   Clear
8:16 PM 33.8 °F - 26.6 °F 75% 30.38 in - Calm Calm - N/A   Scattered Clouds
8:36 PM 33.8 °F - 28.4 °F 81% 30.39 in - Calm Calm - N/A   Mostly Cloudy
8:56 PM 33.8 °F - 28.4 °F 81% 30.39 in - Calm Calm - N/A   Overcast
9:16 PM 33.8 °F 29.6 °F 26.6 °F 75% 30.39 in - WSW 4.6 mph - N/A   Mostly Cloudy
9:36 PM 35.6 °F - 26.6 °F 70% 30.41 in - Calm Calm - N/A   Scattered Clouds
9:56 PM 33.8 °F - 26.6 °F 75% 30.41 in - Calm Calm - N/A   Clear
10:16 PM 32.0 °F 28.7 °F 26.6 °F 80% 30.42 in - ENE 3.5 mph - N/A   Clear
10:36 PM 32.0 °F 28.7 °F 24.8 °F 75% 30.42 in - NNE 3.5 mph - N/A   Clear
10:56 PM 32.0 °F 28.7 °F 24.8 °F 75% 30.43 in - ESE 3.5 mph - N/A   Clear
11:16 PM 30.2 °F - 24.8 °F 80% 30.44 in - Calm Calm - N/A   Clear
11:36 PM 30.2 °F - 24.8 °F 80% 30.44 in - Calm Calm - N/A   Clear
11:55 PM 30.2 °F - 24.8 °F 80% 30.44 in - Calm Calm - N/A   Clear